Location: Laupheim
(48.2265°N, 9.8829°E)
Time: 22:12:05
(UTC+01:00)

ISS - Pass Details

Date: 14 November 2017
Orbit: 402 x 407 km, 51.6° (Epoch: 21 November)

Event Time Altitude Azimuth Distance (km) Brightness Sun altitude
Exits shadow 05:45:16 48° 264° (W) 538 -3.7 -16.7°
Maximum altitude 05:45:57 64° 208° (SSW) 449 -3.8 -16.6°
Drops below altitude 10° 05:49:10 10° 126° (SE) 1,451 0.0 -16.1°
Sets 05:51:15 0° 123° (ESE) 2,308 1.3 -15.8°
